Time,TemperatureF,DewpointF,PressureIn,WindDirection,WindDirectionDegrees,WindSpeedMPH,WindSpeedGustMPH,Humidity,HourlyPrecipIn,Conditions,Clouds,dailyrainin,SoftwareType,DateUTC
2013-02-19 00:00:00,45.1,35.2,28.64,South,180,10.1,17.9,68,0.00,,,0.00,VWS V14.00,2013-02-19 05:00:00,
2013-02-19 00:05:00,44.8,35.6,28.64,South,175,8.7,12.8,70,0.00,,,0.00,VWS V14.00,2013-02-19 05:05:00,
2013-02-19 00:10:00,44.4,36.3,28.64,SSW,193,5.8,12.8,73,0.00,,,0.00,VWS V14.00,2013-02-19 05:10:00,
2013-02-19 00:15:00,44.2,36.8,28.64,South,185,8.1,15.0,75,0.00,,,0.00,VWS V14.00,2013-02-19 05:15:00,
2013-02-19 00:20:00,44.1,37.0,28.61,SSE,166,6.7,15.0,76,0.00,,,0.00,VWS V14.00,2013-02-19 05:20:00,
2013-02-19 00:25:00,43.7,37.0,28.61,South,182,10.5,15.0,77,0.00,,,0.00,VWS V14.00,2013-02-19 05:25:00,
2013-02-19 00:30:00,43.7,37.0,28.61,SW,222,8.7,10.1,77,0.00,,,0.00,VWS V14.00,2013-02-19 05:30:00,
2013-02-19 00:35:00,43.3,36.6,28.61,SSE,149,5.8,12.3,77,0.00,,,0.00,VWS V14.00,2013-02-19 05:35:00,
2013-02-19 00:40:00,43.3,37.0,28.61,SW,222,11.0,15.4,78,0.00,,,0.00,VWS V14.00,2013-02-19 05:40:00,
2013-02-19 00:45:00,43.3,37.3,28.61,SSW,198,6.3,15.4,79,0.00,,,0.00,VWS V14.00,2013-02-19 05:45:00,
2013-02-19 00:51:00,43.2,37.1,28.61,SSW,206,9.6,15.4,79,0.00,,,0.00,VWS V14.00,2013-02-19 05:51:00,
2013-02-19 00:56:00,43.0,37.6,28.61,ESE,121,8.7,15.4,81,0.00,,,0.00,VWS V14.00,2013-02-19 05:56:00,
2013-02-19 01:01:00,42.8,37.7,28.61,SSW,195,7.6,8.1,82,0.00,,,0.00,VWS V14.00,2013-02-19 06:01:00,
2013-02-19 01:06:00,42.4,37.7,28.59,SSW,208,11.9,12.8,83,0.00,,,0.00,VWS V14.00,2013-02-19 06:06:00,
2013-02-19 01:12:00,42.1,37.6,28.59,SSE,148,11.0,11.0,84,0.00,,,0.00,VWS V14.00,2013-02-19 06:12:00,
2013-02-19 01:17:00,42.1,37.9,28.59,SSE,168,7.6,12.8,85,0.00,,,0.00,VWS V14.00,2013-02-19 06:17:00,
2013-02-19 01:22:00,41.9,38.0,28.59,South,169,7.6,13.2,86,0.00,,,0.00,VWS V14.00,2013-02-19 06:22:00,
2013-02-19 01:27:00,42.1,38.8,28.59,SSW,195,10.1,15.4,88,0.00,,,0.00,VWS V14.00,2013-02-19 06:27:00,
2013-02-19 01:32:00,42.1,39.1,28.56,SW,228,5.4,13.6,89,0.00,,,0.00,VWS V14.00,2013-02-19 06:32:00,
2013-02-19 01:37:00,42.1,39.4,28.56,South,189,7.6,16.8,90,0.00,,,0.00,VWS V14.00,2013-02-19 06:37:00,
2013-02-19 01:42:00,42.1,39.7,28.56,SSW,196,5.8,16.8,91,0.00,,,0.00,VWS V14.00,2013-02-19 06:42:00,
2013-02-19 01:47:00,42.1,39.7,28.56,SSW,199,6.3,16.8,91,0.00,,,0.00,VWS V14.00,2013-02-19 06:47:00,
2013-02-19 01:52:00,42.3,40.1,28.56,SSE,159,8.1,19.2,92,0.00,,,0.00,VWS V14.00,2013-02-19 06:52:00,
2013-02-19 01:57:00,42.3,40.4,28.56,SE,137,5.8,19.2,93,0.00,,,0.00,VWS V14.00,2013-02-19 06:57:00,
2013-02-19 02:02:00,42.3,40.4,28.56,SSE,154,8.7,12.8,93,0.00,,,0.00,VWS V14.00,2013-02-19 07:02:00,
2013-02-19 02:07:00,42.3,40.7,28.56,SSW,196,8.1,12.8,94,0.00,,,0.00,VWS V14.00,2013-02-19 07:07:00,
2013-02-19 02:13:00,42.1,40.5,28.56,South,182,12.3,17.0,94,0.00,,,0.00,VWS V14.00,2013-02-19 07:13:00,
2013-02-19 02:18:00,42.3,40.7,28.53,SE,144,5.4,17.0,94,0.00,,,0.00,VWS V14.00,2013-02-19 07:18:00,
2013-02-19 02:23:00,42.1,40.5,28.53,SW,229,17.0,17.0,94,0.00,,,0.00,VWS V14.00,2013-02-19 07:23:00,
2013-02-19 02:28:00,42.1,40.5,28.53,SW,229,6.3,17.0,94,0.00,,,0.00,VWS V14.00,2013-02-19 07:28:00,
2013-02-19 02:33:00,42.1,40.8,28.53,SSW,207,5.8,17.4,95,0.00,,,0.00,VWS V14.00,2013-02-19 07:33:00,
2013-02-19 02:38:00,42.1,40.8,28.53,South,179,8.1,17.4,95,0.00,,,0.00,VWS V14.00,2013-02-19 07:38:00,
2013-02-19 02:43:00,41.7,40.4,28.53,South,172,5.4,17.4,95,0.00,,,0.00,VWS V14.00,2013-02-19 07:43:00,
2013-02-19 02:48:00,41.7,40.4,28.53,SSE,165,8.7,17.4,95,0.00,,,0.00,VWS V14.00,2013-02-19 07:48:00,
2013-02-19 02:53:00,41.5,40.2,28.53,South,191,8.7,17.4,95,0.00,,,0.00,VWS V14.00,2013-02-19 07:53:00,
2013-02-19 02:58:00,41.5,40.2,28.53,SSW,205,10.1,22.8,95,0.00,,,0.00,VWS V14.00,2013-02-19 07:58:00,
2013-02-19 03:03:00,41.5,40.2,28.50,SSE,166,10.1,13.2,95,0.00,,,0.00,VWS V14.00,2013-02-19 08:03:00,
2013-02-19 03:08:00,41.4,40.0,28.50,SSE,159,15.0,17.4,95,0.00,,,0.00,VWS V14.00,2013-02-19 08:08:00,
2013-02-19 03:13:00,41.4,40.0,28.50,South,184,5.8,19.7,95,0.00,,,0.00,VWS V14.00,2013-02-19 08:13:00,
2013-02-19 03:18:00,41.2,40.1,28.50,SW,215,10.1,19.7,96,0.00,,,0.00,VWS V14.00,2013-02-19 08:18:00,
2013-02-19 03:23:00,41.0,40.0,28.50,SSE,168,6.3,19.7,96,0.00,,,0.00,VWS V14.00,2013-02-19 08:23:00,
2013-02-19 03:28:00,40.8,40.0,28.50,South,180,5.8,19.7,97,0.00,,,0.00,VWS V14.00,2013-02-19 08:28:00,
2013-02-19 03:33:00,40.8,40.0,28.47,South,184,8.1,13.2,97,0.00,,,0.00,VWS V14.00,2013-02-19 08:33:00,
2013-02-19 03:38:00,40.8,40.0,28.47,SSE,167,11.9,18.8,97,0.00,,,0.00,VWS V14.00,2013-02-19 08:38:00,
2013-02-19 03:43:00,41.0,40.2,28.47,SW,229,5.4,18.8,97,0.00,,,0.00,VWS V14.00,2013-02-19 08:43:00,
2013-02-19 03:48:00,41.0,40.5,28.47,South,171,7.6,20.6,98,0.00,,,0.00,VWS V14.00,2013-02-19 08:48:00,
2013-02-19 03:53:00,41.0,40.5,28.47,South,172,6.3,20.6,98,0.00,,,0.00,VWS V14.00,2013-02-19 08:53:00,
2013-02-19 03:58:00,41.0,40.5,28.47,SSE,155,5.4,20.6,98,0.00,,,0.00,VWS V14.00,2013-02-19 08:58:00,
2013-02-19 04:03:00,41.0,40.5,28.47,SE,129,8.3,15.4,98,0.00,,,0.00,VWS V14.00,2013-02-19 09:03:00,
2013-02-19 04:08:00,41.0,40.5,28.47,SW,234,10.5,15.4,98,0.00,,,0.00,VWS V14.00,2013-02-19 09:08:00,
2013-02-19 04:13:00,41.0,40.5,28.47,SE,134,12.3,15.4,98,0.00,,,0.00,VWS V14.00,2013-02-19 09:13:00,
2013-02-19 04:18:00,41.0,40.5,28.44,SSW,206,15.4,17.0,98,0.00,,,0.00,VWS V14.00,2013-02-19 09:18:00,
2013-02-19 04:23:00,41.0,40.5,28.44,SSW,193,7.6,17.0,98,0.00,,,0.00,VWS V14.00,2013-02-19 09:23:00,
2013-02-19 04:28:00,41.0,40.5,28.44,SW,214,8.3,17.0,98,0.00,,,0.00,VWS V14.00,2013-02-19 09:28:00,
2013-02-19 04:33:00,41.0,40.5,28.47,SSW,199,5.4,15.0,98,0.00,,,0.00,VWS V14.00,2013-02-19 09:33:00,
2013-02-19 04:38:00,41.0,40.5,28.47,South,184,12.3,15.0,98,0.00,,,0.00,VWS V14.00,2013-02-19 09:38:00,
2013-02-19 04:43:00,41.0,40.5,28.47,SSW,201,7.6,15.0,98,0.00,,,0.00,VWS V14.00,2013-02-19 09:43:00,
2013-02-19 04:48:00,40.8,40.3,28.47,WSW,251,8.3,17.4,98,0.00,,,0.00,VWS V14.00,2013-02-19 09:48:00,
2013-02-19 04:53:00,39.6,38.0,28.47,WNW,283,7.6,17.4,94,0.00,,,0.00,VWS V14.00,2013-02-19 09:53:00,
2013-02-19 04:58:00,38.5,35.5,28.47,WSW,257,11.0,20.1,89,0.00,,,0.00,VWS V14.00,2013-02-19 09:58:00,
2013-02-19 05:03:00,37.9,35.0,28.50,WNW,291,4.0,11.0,89,0.00,,,0.00,VWS V14.00,2013-02-19 10:03:00,
2013-02-19 05:08:00,37.4,34.2,28.50,South,191,3.1,15.4,88,0.00,,,0.00,VWS V14.00,2013-02-19 10:08:00,
2013-02-19 05:13:00,37.0,33.8,28.50,West,277,3.6,17.0,88,0.00,,,0.00,VWS V14.00,2013-02-19 10:13:00,
2013-02-19 05:18:00,36.7,33.5,28.50,West,259,5.4,17.0,88,0.00,,,0.00,VWS V14.00,2013-02-19 10:18:00,
2013-02-19 05:23:00,36.3,32.8,28.50,WNW,286,10.5,17.0,87,0.00,,,0.00,VWS V14.00,2013-02-19 10:23:00,
2013-02-19 05:28:00,36.0,32.8,28.50,WSW,255,10.1,17.0,88,0.00,,,0.00,VWS V14.00,2013-02-19 10:28:00,
2013-02-19 05:33:00,35.8,32.6,28.53,NNW,333,6.3,12.8,88,0.00,,,0.00,VWS V14.00,2013-02-19 10:33:00,
2013-02-19 05:38:00,35.6,32.7,28.53,West,273,5.4,18.8,89,0.00,,,0.00,VWS V14.00,2013-02-19 10:38:00,
2013-02-19 05:43:00,35.4,32.5,28.53,West,272,3.6,18.8,89,0.00,,,0.00,VWS V14.00,2013-02-19 10:43:00,
2013-02-19 05:48:00,35.2,32.6,28.53,West,265,5.4,18.8,90,0.00,,,0.00,VWS V14.00,2013-02-19 10:48:00,
2013-02-19 05:53:00,35.1,32.4,28.53,SW,227,7.2,18.8,90,0.00,,,0.00,VWS V14.00,2013-02-19 10:53:00,
2013-02-19 05:58:00,35.1,32.7,28.53,WSW,246,7.6,18.8,91,0.00,,,0.00,VWS V14.00,2013-02-19 10:58:00,
2013-02-19 06:03:00,35.1,32.7,28.53,WNW,293,4.9,13.2,91,0.00,,,0.00,VWS V14.00,2013-02-19 11:03:00,
2013-02-19 06:08:00,34.9,32.8,28.53,NW,326,5.8,13.2,92,0.00,,,0.00,VWS V14.00,2013-02-19 11:08:00,
2013-02-19 06:13:00,34.9,32.8,28.53,West,267,3.6,13.2,92,0.00,,,0.00,VWS V14.00,2013-02-19 11:13:00,
2013-02-19 06:18:00,34.7,32.9,28.53,West,281,6.3,13.2,93,0.00,,,0.00,VWS V14.00,2013-02-19 11:18:00,
2013-02-19 06:23:00,34.7,33.2,28.53,WSW,251,8.1,13.2,94,0.00,,,0.00,VWS V14.00,2013-02-19 11:23:00,
2013-02-19 06:28:00,34.7,33.2,28.53,West,266,8.3,13.2,94,0.00,,,0.00,VWS V14.00,2013-02-19 11:28:00,
2013-02-19 06:33:00,34.5,33.0,28.53,WSW,256,5.8,14.5,94,0.00,,,0.00,VWS V14.00,2013-02-19 11:33:00,
2013-02-19 06:38:00,34.3,32.8,28.53,WSW,243,12.8,17.4,94,0.00,,,0.00,VWS V14.00,2013-02-19 11:38:00,
2013-02-19 06:43:00,34.0,32.2,28.53,WNW,297,12.8,18.3,93,0.00,,,0.00,VWS V14.00,2013-02-19 11:43:00,
2013-02-19 06:48:00,33.8,31.7,28.56,West,281,8.1,18.3,92,0.00,,,0.00,VWS V14.00,2013-02-19 11:48:00,
2013-02-19 06:53:00,33.6,31.3,28.56,WSW,258,5.4,19.2,91,0.00,,,0.00,VWS V14.00,2013-02-19 11:53:00,
2013-02-19 06:58:00,33.4,30.8,28.56,WNW,288,4.0,19.2,90,0.00,,,0.00,VWS V14.00,2013-02-19 11:58:00,
2013-02-19 07:03:00,33.3,30.6,28.56,West,259,3.6,9.6,90,0.00,,,0.00,VWS V14.00,2013-02-19 12:03:00,
2013-02-19 07:08:00,33.1,30.5,28.56,WNW,297,2.7,9.6,90,0.00,,,0.00,VWS V14.00,2013-02-19 12:08:00,
2013-02-19 07:13:00,32.9,30.6,28.56,West,268,3.1,17.4,91,0.00,,,0.00,VWS V14.00,2013-02-19 12:13:00,
2013-02-19 07:18:00,32.7,29.8,28.56,SW,233,5.4,17.4,89,0.00,,,0.00,VWS V14.00,2013-02-19 12:18:00,
2013-02-19 07:23:00,32.5,29.7,28.56,SW,218,8.7,17.4,89,0.00,,,0.00,VWS V14.00,2013-02-19 12:23:00,
2013-02-19 07:28:00,32.5,29.7,28.56,WSW,242,7.6,17.4,89,0.00,,,0.00,VWS V14.00,2013-02-19 12:28:00,
2013-02-19 07:33:00,32.4,29.5,28.59,West,263,6.7,10.1,89,0.00,,,0.00,VWS V14.00,2013-02-19 12:33:00,
2013-02-19 07:38:00,32.4,29.8,28.59,SSW,204,5.8,12.3,90,0.00,,,0.00,VWS V14.00,2013-02-19 12:38:00,
2013-02-19 07:43:00,32.2,29.3,28.59,West,268,10.5,15.4,89,0.00,,,0.00,VWS V14.00,2013-02-19 12:43:00,
2013-02-19 07:48:00,32.2,29.3,28.59,WNW,282,4.0,15.4,89,0.00,,,0.00,VWS V14.00,2013-02-19 12:48:00,
2013-02-19 07:53:00,32.0,28.9,28.59,SW,217,3.1,15.4,88,0.00,,,0.00,VWS V14.00,2013-02-19 12:53:00,
2013-02-19 07:58:00,31.6,28.5,28.59,SE,136,7.2,15.4,88,0.00,,,0.00,VWS V14.00,2013-02-19 12:58:00,
2013-02-19 08:03:00,31.5,28.0,28.59,West,270,5.4,12.8,87,0.00,,,0.00,VWS V14.00,2013-02-19 13:03:00,
2013-02-19 08:09:00,31.3,27.9,28.59,West,266,8.1,14.1,87,0.00,,,0.00,VWS V14.00,2013-02-19 13:09:00,
2013-02-19 08:14:00,30.9,27.2,28.59,WSW,250,10.5,19.2,86,0.00,,,0.00,VWS V14.00,2013-02-19 13:14:00,
2013-02-19 08:19:00,30.7,27.1,28.59,SW,234,5.4,19.2,86,0.00,,,0.00,VWS V14.00,2013-02-19 13:19:00,
2013-02-19 08:24:00,30.6,26.9,28.59,WSW,246,15.0,19.2,86,0.00,,,0.00,VWS V14.00,2013-02-19 13:24:00,
2013-02-19 08:29:00,30.2,26.5,28.59,NNW,343,7.6,19.2,86,0.00,,,0.00,VWS V14.00,2013-02-19 13:29:00,
2013-02-19 08:34:00,30.0,26.4,28.61,North,6,3.6,12.3,86,0.00,,,0.00,VWS V14.00,2013-02-19 13:34:00,
2013-02-19 08:39:00,29.8,26.5,28.61,WSW,251,14.5,15.0,87,0.00,,,0.00,VWS V14.00,2013-02-19 13:39:00,
2013-02-19 08:44:00,29.7,26.3,28.61,South,189,5.8,15.0,87,0.00,,,0.00,VWS V14.00,2013-02-19 13:44:00,
2013-02-19 08:49:00,29.3,25.9,28.61,West,273,17.0,19.2,87,0.00,,,0.00,VWS V14.00,2013-02-19 13:49:00,
2013-02-19 08:54:00,29.1,25.7,28.61,WNW,287,8.7,19.2,87,0.00,,,0.00,VWS V14.00,2013-02-19 13:54:00,
2013-02-19 08:59:00,28.9,25.6,28.61,West,262,5.4,19.2,87,0.00,,,0.00,VWS V14.00,2013-02-19 13:59:00,
2013-02-19 09:04:00,28.8,25.1,28.61,WSW,241,8.7,12.8,86,0.00,,,0.00,VWS V14.00,2013-02-19 14:04:00,
2013-02-19 09:09:00,28.6,24.6,28.61,WNW,283,4.0,14.5,85,0.00,,,0.00,VWS V14.00,2013-02-19 14:09:00,
2013-02-19 09:14:00,28.6,24.4,28.61,SSW,210,11.9,14.5,84,0.00,,,0.00,VWS V14.00,2013-02-19 14:14:00,
2013-02-19 09:19:00,28.4,23.6,28.61,WSW,253,15.9,23.7,82,0.00,,,0.00,VWS V14.00,2013-02-19 14:19:00,
2013-02-19 09:24:00,28.4,23.3,28.61,WNW,285,2.7,23.7,81,0.00,,,0.00,VWS V14.00,2013-02-19 14:24:00,
2013-02-19 09:29:00,28.2,23.1,28.61,WNW,290,8.1,23.7,81,0.00,,,0.00,VWS V14.00,2013-02-19 14:29:00,
2013-02-19 09:34:00,28.2,22.9,28.64,SW,219,7.6,15.0,80,0.00,,,0.00,VWS V14.00,2013-02-19 14:34:00,
2013-02-19 09:39:00,28.0,22.1,28.64,West,281,5.4,15.0,78,0.00,,,0.00,VWS V14.00,2013-02-19 14:39:00,
2013-02-19 09:44:00,27.9,21.9,28.64,West,280,5.4,16.3,78,0.00,,,0.00,VWS V14.00,2013-02-19 14:44:00,
2013-02-19 09:49:00,27.5,21.5,28.64,WNW,286,12.8,16.3,78,0.00,,,0.00,VWS V14.00,2013-02-19 14:49:00,
2013-02-19 09:54:00,27.0,20.7,28.64,WNW,299,8.3,16.3,77,0.00,,,0.00,VWS V14.00,2013-02-19 14:54:00,
2013-02-19 09:59:00,26.8,20.2,28.64,WSW,254,15.4,16.3,76,0.00,,,0.00,VWS V14.00,2013-02-19 14:59:00,
2013-02-19 10:04:00,26.6,19.8,28.64,WSW,250,10.1,12.3,75,0.00,,,0.00,VWS V14.00,2013-02-19 15:04:00,
2013-02-19 10:09:00,26.8,19.6,28.64,West,261,4.0,17.0,74,0.00,,,0.00,VWS V14.00,2013-02-19 15:09:00,
2013-02-19 10:14:00,27.0,19.8,28.64,West,260,5.8,17.0,74,0.00,,,0.00,VWS V14.00,2013-02-19 15:14:00,
2013-02-19 10:19:00,27.0,19.1,28.64,SW,220,5.4,17.0,72,0.00,,,0.00,VWS V14.00,2013-02-19 15:19:00,
2013-02-19 10:24:00,27.5,20.0,28.64,SSE,154,4.0,17.0,73,0.00,,,0.00,VWS V14.00,2013-02-19 15:24:00,
2013-02-19 10:29:00,26.8,18.6,28.64,NNW,337,8.1,17.0,71,0.00,,,0.00,VWS V14.00,2013-02-19 15:29:00,
2013-02-19 10:34:00,26.1,18.6,28.64,WNW,291,3.6,15.0,73,0.00,,,0.00,VWS V14.00,2013-02-19 15:34:00,
2013-02-19 10:39:00,26.1,19.2,28.64,WNW,288,8.3,15.0,75,0.00,,,0.00,VWS V14.00,2013-02-19 15:39:00,
2013-02-19 10:44:00,26.2,18.5,28.64,West,268,3.1,15.0,72,0.00,,,0.00,VWS V14.00,2013-02-19 15:44:00,
2013-02-19 10:49:00,27.0,19.1,28.67,West,278,3.1,15.0,72,0.00,,,0.00,VWS V14.00,2013-02-19 15:49:00,
2013-02-19 10:54:00,27.1,18.7,28.67,WNW,294,8.1,15.0,70,0.00,,,0.00,VWS V14.00,2013-02-19 15:54:00,
2013-02-19 10:59:00,27.1,18.0,28.67,NNW,327,4.9,15.0,68,0.00,,,0.00,VWS V14.00,2013-02-19 15:59:00,
2013-02-19 11:04:00,26.6,17.1,28.67,WNW,289,8.7,13.2,67,0.00,,,0.00,VWS V14.00,2013-02-19 16:04:00,
2013-02-19 11:09:00,26.4,17.0,28.67,WSW,247,3.6,13.2,67,0.00,,,0.00,VWS V14.00,2013-02-19 16:09:00,
2013-02-19 11:14:00,25.9,16.1,28.67,West,271,14.5,14.5,66,0.00,,,0.00,VWS V14.00,2013-02-19 16:14:00,
2013-02-19 11:19:00,25.5,15.1,28.67,West,270,12.3,14.5,64,0.00,,,0.00,VWS V14.00,2013-02-19 16:19:00,
2013-02-19 11:24:00,25.3,14.2,28.67,WSW,256,7.6,17.0,62,0.00,,,0.00,VWS V14.00,2013-02-19 16:24:00,
2013-02-19 11:29:00,25.5,13.2,28.67,WNW,284,8.1,17.0,59,0.00,,,0.00,VWS V14.00,2013-02-19 16:29:00,
2013-02-19 11:34:00,25.7,12.6,28.67,SSW,208,10.5,16.8,57,0.00,,,0.00,VWS V14.00,2013-02-19 16:34:00,
2013-02-19 11:39:00,25.9,12.8,28.67,West,261,6.7,16.8,57,0.00,,,0.00,VWS V14.00,2013-02-19 16:39:00,
2013-02-19 11:44:00,26.1,12.5,28.67,WSW,250,9.6,18.8,56,0.00,,,0.00,VWS V14.00,2013-02-19 16:44:00,
2013-02-19 11:49:00,26.2,12.7,28.67,West,264,5.4,20.1,56,0.00,,,0.00,VWS V14.00,2013-02-19 16:49:00,
2013-02-19 11:54:00,26.8,13.2,28.67,WNW,296,5.4,20.1,56,0.00,,,0.00,VWS V14.00,2013-02-19 16:54:00,
2013-02-19 11:59:00,26.2,12.7,28.67,West,267,8.7,20.1,56,0.00,,,0.00,VWS V14.00,2013-02-19 16:59:00,
2013-02-19 12:04:00,25.3,12.6,28.67,West,272,6.3,19.2,58,0.00,,,0.00,VWS V14.00,2013-02-19 17:04:00,
2013-02-19 12:09:00,25.2,14.0,28.67,WSW,251,3.1,19.2,62,0.00,,,0.00,VWS V14.00,2013-02-19 17:09:00,
2013-02-19 12:14:00,24.8,15.4,28.67,WSW,257,6.3,19.2,67,0.00,,,0.00,VWS V14.00,2013-02-19 17:14:00,
2013-02-19 12:19:00,24.6,15.9,28.67,West,262,8.3,19.2,69,0.00,,,0.00,VWS V14.00,2013-02-19 17:19:00,
2013-02-19 12:24:00,24.4,16.1,28.67,WNW,290,3.6,19.2,70,0.00,,,0.00,VWS V14.00,2013-02-19 17:24:00,
2013-02-19 12:29:00,24.3,15.9,28.67,WNW,296,6.3,19.2,70,0.00,,,0.00,VWS V14.00,2013-02-19 17:29:00,
2013-02-19 12:34:00,24.6,16.2,28.70,WSW,253,5.8,10.1,70,0.00,,,0.00,VWS V14.00,2013-02-19 17:34:00,
2013-02-19 12:39:00,23.9,15.2,28.70,SW,216,8.3,14.1,69,0.00,,,0.00,VWS V14.00,2013-02-19 17:39:00,
2013-02-19 12:44:00,23.7,15.7,28.70,West,269,10.5,14.1,71,0.00,,,0.00,VWS V14.00,2013-02-19 17:44:00,
2013-02-19 12:49:00,23.5,15.2,28.70,SW,230,4.0,16.8,70,0.00,,,0.00,VWS V14.00,2013-02-19 17:49:00,
2013-02-19 12:54:00,23.4,14.7,28.70,West,270,7.6,17.4,69,0.00,,,0.00,VWS V14.00,2013-02-19 17:54:00,
2013-02-19 12:59:00,23.2,13.9,28.70,WNW,285,8.1,25.1,67,0.00,,,0.00,VWS V14.00,2013-02-19 17:59:00,
2013-02-19 13:04:00,23.5,13.9,28.70,West,274,4.9,16.8,66,0.00,,,0.00,VWS V14.00,2013-02-19 18:04:00,
2013-02-19 13:09:00,24.1,14.7,28.70,WSW,252,5.8,16.8,67,0.00,,,0.00,VWS V14.00,2013-02-19 18:09:00,
2013-02-19 13:14:00,24.3,14.9,28.70,WSW,251,15.0,16.8,67,0.00,,,0.00,VWS V14.00,2013-02-19 18:14:00,
2013-02-19 13:19:00,23.9,14.9,28.70,SSW,206,7.6,16.8,68,0.00,,,0.00,VWS V14.00,2013-02-19 18:19:00,
2013-02-19 13:24:00,24.3,15.2,28.70,SW,231,11.0,16.8,68,0.00,,,0.00,VWS V14.00,2013-02-19 18:24:00,
2013-02-19 13:29:00,23.7,14.0,28.70,SW,235,3.6,19.7,66,0.00,,,0.00,VWS V14.00,2013-02-19 18:29:00,
2013-02-19 13:34:00,23.7,14.4,28.70,West,266,6.7,16.3,67,0.00,,,0.00,VWS V14.00,2013-02-19 18:34:00,
2013-02-19 13:39:00,24.4,15.7,28.70,West,261,6.3,16.3,69,0.00,,,0.00,VWS V14.00,2013-02-19 18:39:00,
2013-02-19 13:44:00,24.3,15.2,28.70,SW,221,8.7,16.3,68,0.00,,,0.00,VWS V14.00,2013-02-19 18:44:00,
2013-02-19 13:49:00,24.4,15.4,28.70,West,275,3.6,16.3,68,0.00,,,0.00,VWS V14.00,2013-02-19 18:49:00,
2013-02-19 13:54:00,24.4,16.1,28.70,West,276,4.0,16.3,70,0.00,,,0.00,VWS V14.00,2013-02-19 18:54:00,
2013-02-19 13:59:00,24.8,15.8,28.70,SSW,211,3.6,16.3,68,0.00,,,0.00,VWS V14.00,2013-02-19 18:59:00,
2013-02-19 14:04:00,24.8,15.1,28.70,SW,226,5.4,15.0,66,0.00,,,0.00,VWS V14.00,2013-02-19 19:04:00,
2013-02-19 14:09:00,25.2,15.1,28.70,South,182,8.7,15.4,65,0.00,,,0.00,VWS V14.00,2013-02-19 19:09:00,
2013-02-19 14:14:00,25.3,15.2,28.70,West,268,10.5,15.4,65,0.00,,,0.00,VWS V14.00,2013-02-19 19:14:00,
2013-02-19 14:19:00,25.0,14.5,28.70,SSW,211,14.5,15.4,64,0.00,,,0.00,VWS V14.00,2013-02-19 19:19:00,
2013-02-19 14:24:00,24.8,13.3,28.70,West,261,7.6,15.4,61,0.00,,,0.00,VWS V14.00,2013-02-19 19:24:00,
2013-02-19 14:29:00,24.4,12.9,28.70,West,281,8.3,15.4,61,0.00,,,0.00,VWS V14.00,2013-02-19 19:29:00,
2013-02-19 14:34:00,23.9,12.8,28.70,WNW,284,8.1,12.3,62,0.00,,,0.00,VWS V14.00,2013-02-19 19:34:00,
2013-02-19 14:39:00,23.5,12.4,28.70,WNW,293,11.0,18.8,62,0.00,,,0.00,VWS V14.00,2013-02-19 19:39:00,
2013-02-19 14:44:00,23.7,13.3,28.70,WNW,291,11.0,18.8,64,0.00,,,0.00,VWS V14.00,2013-02-19 19:44:00,
2013-02-19 14:49:00,23.7,14.0,28.73,West,273,11.4,18.8,66,0.00,,,0.00,VWS V14.00,2013-02-19 19:49:00,
2013-02-19 14:55:00,23.4,14.7,28.73,West,260,10.5,18.8,69,0.00,,,0.00,VWS V14.00,2013-02-19 19:55:00,
2013-02-19 15:00:00,23.0,14.7,28.73,SW,231,6.3,18.8,70,0.00,,,0.00,VWS V14.00,2013-02-19 20:00:00,
2013-02-19 15:05:00,23.0,14.0,28.73,NNW,335,3.6,17.0,68,0.00,,,0.00,VWS V14.00,2013-02-19 20:05:00,
2013-02-19 15:10:00,23.2,12.8,28.73,West,279,7.6,17.0,64,0.00,,,0.00,VWS V14.00,2013-02-19 20:10:00,
2013-02-19 15:15:00,22.8,12.5,28.73,West,263,14.5,17.0,64,0.00,,,0.00,VWS V14.00,2013-02-19 20:15:00,
2013-02-19 15:20:00,22.8,11.8,28.73,NW,308,5.4,17.0,62,0.00,,,0.00,VWS V14.00,2013-02-19 20:20:00,
2013-02-19 15:25:00,23.0,11.6,28.73,WSW,246,8.7,17.0,61,0.00,,,0.00,VWS V14.00,2013-02-19 20:25:00,
2013-02-19 15:30:00,23.0,11.2,28.73,SW,236,8.1,17.0,60,0.00,,,0.00,VWS V14.00,2013-02-19 20:30:00,
2013-02-19 15:35:00,23.0,10.8,28.73,WNW,291,6.7,11.0,59,0.00,,,0.00,VWS V14.00,2013-02-19 20:35:00,
2013-02-19 15:40:00,23.0,10.8,28.73,West,277,5.8,11.0,59,0.00,,,0.00,VWS V14.00,2013-02-19 20:40:00,
2013-02-19 15:45:00,22.8,10.6,28.73,South,181,15.0,15.0,59,0.00,,,0.00,VWS V14.00,2013-02-19 20:45:00,
2013-02-19 15:50:00,22.6,10.1,28.76,WSW,238,10.5,15.0,58,0.00,,,0.00,VWS V14.00,2013-02-19 20:50:00,
2013-02-19 15:55:00,22.6,10.1,28.76,West,268,9.2,15.0,58,0.00,,,0.00,VWS V14.00,2013-02-19 20:55:00,
2013-02-19 16:00:00,22.6,10.5,28.76,WSW,253,4.0,15.0,59,0.00,,,0.00,VWS V14.00,2013-02-19 21:00:00,
2013-02-19 16:05:00,22.6,10.9,28.76,West,278,10.1,17.9,60,0.00,,,0.00,VWS V14.00,2013-02-19 21:05:00,
2013-02-19 16:10:00,22.6,10.9,28.76,West,266,8.7,17.9,60,0.00,,,0.00,VWS V14.00,2013-02-19 21:10:00,
2013-02-19 16:15:00,22.5,10.7,28.76,WNW,290,2.2,17.9,60,0.00,,,0.00,VWS V14.00,2013-02-19 21:15:00,
2013-02-19 16:20:00,22.3,10.5,28.76,WNW,289,8.7,17.9,60,0.00,,,0.00,VWS V14.00,2013-02-19 21:20:00,
2013-02-19 16:25:00,22.5,11.1,28.76,WSW,245,4.9,17.9,61,0.00,,,0.00,VWS V14.00,2013-02-19 21:25:00,
2013-02-19 16:30:00,22.5,11.4,28.76,WNW,302,6.7,17.9,62,0.00,,,0.00,VWS V14.00,2013-02-19 21:30:00,
2013-02-19 16:35:00,22.3,10.9,28.76,South,186,3.1,17.4,61,0.00,,,0.00,VWS V14.00,2013-02-19 21:35:00,
2013-02-19 16:40:00,22.3,10.9,28.76,WSW,250,4.0,17.4,61,0.00,,,0.00,VWS V14.00,2013-02-19 21:40:00,
2013-02-19 16:45:00,22.3,11.2,28.76,WNW,297,2.7,17.4,62,0.00,,,0.00,VWS V14.00,2013-02-19 21:45:00,
2013-02-19 16:50:00,22.3,10.9,28.79,North,353,3.6,17.4,61,0.00,,,0.00,VWS V14.00,2013-02-19 21:50:00,
2013-02-19 16:55:00,22.3,10.5,28.79,West,279,8.3,17.4,60,0.00,,,0.00,VWS V14.00,2013-02-19 21:55:00,
2013-02-19 17:00:00,22.1,10.0,28.79,WSW,248,12.8,12.8,59,0.00,,,0.00,VWS V14.00,2013-02-19 22:00:00,
2013-02-19 17:05:00,21.9,10.6,28.79,West,275,3.1,14.1,61,0.00,,,0.00,VWS V14.00,2013-02-19 22:05:00,
2013-02-19 17:10:00,21.7,11.8,28.79,WNW,303,3.1,16.3,65,0.00,,,0.00,VWS V14.00,2013-02-19 22:10:00,
2013-02-19 17:15:00,21.4,12.5,28.79,WNW,295,17.0,17.0,68,0.00,,,0.00,VWS V14.00,2013-02-19 22:15:00,
2013-02-19 17:20:00,21.2,13.3,28.79,WSW,251,2.7,17.0,71,0.00,,,0.00,VWS V14.00,2013-02-19 22:20:00,
2013-02-19 17:25:00,21.2,13.9,28.79,West,278,3.6,17.0,73,0.00,,,0.00,VWS V14.00,2013-02-19 22:25:00,
2013-02-19 17:30:00,21.0,14.1,28.79,SW,223,5.8,8.7,74,0.00,,,0.00,VWS V14.00,2013-02-19 22:30:00,
2013-02-19 17:35:00,20.7,14.0,28.82,West,278,6.3,12.3,75,0.00,,,0.00,VWS V14.00,2013-02-19 22:35:00,
2013-02-19 17:40:00,20.7,14.3,28.82,West,261,3.1,13.2,76,0.00,,,0.00,VWS V14.00,2013-02-19 22:40:00,
2013-02-19 17:45:00,20.3,14.0,28.82,WNW,289,17.4,17.4,76,0.00,,,0.00,VWS V14.00,2013-02-19 22:45:00,
2013-02-19 17:50:00,20.3,14.0,28.82,WSW,245,3.1,17.4,76,0.00,,,0.00,VWS V14.00,2013-02-19 22:50:00,
2013-02-19 17:55:00,20.1,13.8,28.82,West,281,10.5,21.9,76,0.00,,,0.00,VWS V14.00,2013-02-19 22:55:00,
2013-02-19 18:00:00,20.1,13.8,28.82,West,260,7.6,7.6,76,0.00,,,0.00,VWS V14.00,2013-02-19 23:00:00,
2013-02-19 18:05:00,20.1,13.8,28.82,WSW,243,4.0,8.7,76,0.00,,,0.00,VWS V14.00,2013-02-19 23:05:00,
2013-02-19 18:10:00,20.1,13.5,28.82,NNW,348,4.0,10.1,75,0.00,,,0.00,VWS V14.00,2013-02-19 23:10:00,
2013-02-19 18:15:00,20.1,13.5,28.82,SSW,203,3.1,10.5,75,0.00,,,0.00,VWS V14.00,2013-02-19 23:15:00,
2013-02-19 18:20:00,19.9,13.3,28.85,West,275,11.0,11.0,75,0.00,,,0.00,VWS V14.00,2013-02-19 23:20:00,
2013-02-19 18:25:00,19.9,13.0,28.85,WNW,290,5.8,14.1,74,0.00,,,0.00,VWS V14.00,2013-02-19 23:25:00,
2013-02-19 18:30:00,19.9,12.7,28.85,West,263,8.7,8.7,73,0.00,,,0.00,VWS V14.00,2013-02-19 23:30:00,
2013-02-19 18:35:00,19.9,12.7,28.85,NW,310,7.6,12.8,73,0.00,,,0.00,VWS V14.00,2013-02-19 23:35:00,
2013-02-19 18:40:00,19.9,12.4,28.85,West,269,8.3,13.2,72,0.00,,,0.00,VWS V14.00,2013-02-19 23:40:00,
2013-02-19 18:45:00,19.9,12.7,28.85,West,261,10.5,13.2,73,0.00,,,0.00,VWS V14.00,2013-02-19 23:45:00,
2013-02-19 18:50:00,19.9,12.4,28.85,WNW,291,5.8,13.2,72,0.00,,,0.00,VWS V14.00,2013-02-19 23:50:00,
2013-02-19 18:55:00,19.9,12.1,28.85,WSW,252,3.1,13.2,71,0.00,,,0.00,VWS V14.00,2013-02-19 23:55:00,
2013-02-19 19:00:00,19.9,12.1,28.85,WNW,284,4.9,5.8,71,0.00,,,0.00,VWS V14.00,2013-02-20 00:00:00,
2013-02-19 19:05:00,19.8,12.2,28.88,WNW,297,3.1,11.9,72,0.00,,,0.00,VWS V14.00,2013-02-20 00:05:00,
2013-02-19 19:10:00,19.4,13.1,28.88,WNW,301,4.0,12.8,76,0.00,,,0.00,VWS V14.00,2013-02-20 00:10:00,
2013-02-19 19:15:00,19.2,13.5,28.88,NW,315,3.6,12.8,78,0.00,,,0.00,VWS V14.00,2013-02-20 00:15:00,
2013-02-19 19:20:00,19.2,13.2,28.88,West,266,2.7,13.2,77,0.00,,,0.00,VWS V14.00,2013-02-20 00:20:00,
2013-02-19 19:25:00,19.2,12.6,28.88,NNW,328,5.4,14.5,75,0.00,,,0.00,VWS V14.00,2013-02-20 00:25:00,
2013-02-19 19:30:00,19.2,12.3,28.88,West,280,8.1,8.1,74,0.00,,,0.00,VWS V14.00,2013-02-20 00:30:00,
2013-02-19 19:35:00,19.2,12.0,28.88,NNW,348,3.6,9.2,73,0.00,,,0.00,VWS V14.00,2013-02-20 00:35:00,
2013-02-19 19:40:00,19.2,11.1,28.88,WNW,287,5.4,9.6,70,0.00,,,0.00,VWS V14.00,2013-02-20 00:40:00,
2013-02-19 19:45:00,19.2,10.7,28.88,West,273,3.1,9.6,69,0.00,,,0.00,VWS V14.00,2013-02-20 00:45:00,
2013-02-19 19:50:00,19.2,10.1,28.88,NW,316,4.0,9.6,67,0.00,,,0.00,VWS V14.00,2013-02-20 00:50:00,
2013-02-19 19:55:00,19.0,7.8,28.88,NW,317,3.1,11.4,61,0.00,,,0.00,VWS V14.00,2013-02-20 00:55:00,
2013-02-19 20:00:00,18.7,7.1,28.88,West,281,10.1,10.1,60,0.00,,,0.00,VWS V14.00,2013-02-20 01:00:00,
2013-02-19 20:05:00,18.7,6.7,28.91,NW,316,8.7,11.0,59,0.00,,,0.00,VWS V14.00,2013-02-20 01:05:00,
2013-02-19 20:10:00,18.5,6.6,28.91,West,264,10.5,15.0,59,0.00,,,0.00,VWS V14.00,2013-02-20 01:10:00,
2013-02-19 20:15:00,18.5,6.6,28.91,West,266,7.6,16.3,59,0.00,,,0.00,VWS V14.00,2013-02-20 01:15:00,
2013-02-19 20:20:00,18.5,6.9,28.91,WNW,282,8.3,16.3,60,0.00,,,0.00,VWS V14.00,2013-02-20 01:20:00,
2013-02-19 20:25:00,18.5,7.3,28.91,NW,315,8.7,16.3,61,0.00,,,0.00,VWS V14.00,2013-02-20 01:25:00,
2013-02-19 20:30:00,18.5,7.3,28.91,WNW,303,2.2,3.1,61,0.00,,,0.00,VWS V14.00,2013-02-20 01:30:00,
2013-02-19 20:35:00,18.3,7.5,28.91,NW,319,4.0,8.7,62,0.00,,,0.00,VWS V14.00,2013-02-20 01:35:00,
2013-02-19 20:40:00,18.3,7.5,28.91,WNW,297,4.0,17.4,62,0.00,,,0.00,VWS V14.00,2013-02-20 01:40:00,
2013-02-19 20:45:00,18.3,7.5,28.91,NW,323,6.3,17.4,62,0.00,,,0.00,VWS V14.00,2013-02-20 01:45:00,
2013-02-19 20:50:00,18.3,7.8,28.91,NW,320,7.6,17.4,63,0.00,,,0.00,VWS V14.00,2013-02-20 01:50:00,
2013-02-19 20:55:00,18.3,7.5,28.91,WNW,300,4.0,17.4,62,0.00,,,0.00,VWS V14.00,2013-02-20 01:55:00,
2013-02-19 21:00:00,18.1,7.0,28.91,WSW,250,4.0,7.2,61,0.00,,,0.00,VWS V14.00,2013-02-20 02:00:00,
2013-02-19 21:05:00,18.1,7.0,28.91,West,277,4.5,8.3,61,0.00,,,0.00,VWS V14.00,2013-02-20 02:05:00,
2013-02-19 21:10:00,18.1,7.0,28.91,WNW,283,7.6,11.4,61,0.00,,,0.00,VWS V14.00,2013-02-20 02:10:00,
2013-02-19 21:16:00,18.1,7.3,28.91,WSW,254,11.0,15.9,62,0.00,,,0.00,VWS V14.00,2013-02-20 02:16:00,
2013-02-19 21:20:00,18.0,7.5,28.91,NW,307,4.0,15.9,63,0.00,,,0.00,VWS V14.00,2013-02-20 02:20:00,
2013-02-19 21:25:00,18.0,7.5,28.91,West,278,2.7,15.9,63,0.00,,,0.00,VWS V14.00,2013-02-20 02:25:00,
2013-02-19 21:31:00,17.8,7.3,28.91,WSW,256,5.4,12.8,63,0.00,,,0.00,VWS V14.00,2013-02-20 02:31:00,
2013-02-19 21:36:00,17.8,7.0,28.91,West,263,3.1,12.8,62,0.00,,,0.00,VWS V14.00,2013-02-20 02:36:00,
2013-02-19 21:41:00,17.6,6.8,28.91,SW,234,4.0,16.8,62,0.00,,,0.00,VWS V14.00,2013-02-20 02:41:00,
2013-02-19 21:46:00,17.6,6.8,28.91,WSW,237,8.7,16.8,62,0.00,,,0.00,VWS V14.00,2013-02-20 02:46:00,
2013-02-19 21:51:00,17.6,7.2,28.91,SW,220,4.0,16.8,63,0.00,,,0.00,VWS V14.00,2013-02-20 02:51:00,
2013-02-19 21:56:00,17.4,7.3,28.91,West,271,11.0,16.8,64,0.00,,,0.00,VWS V14.00,2013-02-20 02:56:00,
2013-02-19 22:01:00,17.4,7.7,28.91,SW,235,5.8,8.7,65,0.00,,,0.00,VWS V14.00,2013-02-20 03:01:00,
2013-02-19 22:06:00,17.2,7.5,28.94,WNW,292,8.3,10.5,65,0.00,,,0.00,VWS V14.00,2013-02-20 03:06:00,
2013-02-19 22:11:00,17.4,8.0,28.94,WSW,238,2.2,10.5,66,0.00,,,0.00,VWS V14.00,2013-02-20 03:11:00,
2013-02-19 22:16:00,17.4,8.0,28.94,WSW,251,12.3,13.2,66,0.00,,,0.00,VWS V14.00,2013-02-20 03:16:00,
2013-02-19 22:21:00,17.4,8.0,28.94,SW,236,11.0,13.2,66,0.00,,,0.00,VWS V14.00,2013-02-20 03:21:00,
2013-02-19 22:26:00,17.4,8.0,28.94,WNW,283,7.6,13.2,66,0.00,,,0.00,VWS V14.00,2013-02-20 03:26:00,
2013-02-19 22:31:00,17.4,7.7,28.94,WSW,254,5.4,10.1,65,0.00,,,0.00,VWS V14.00,2013-02-20 03:31:00,
2013-02-19 22:36:00,17.4,8.0,28.94,West,277,7.2,11.4,66,0.00,,,0.00,VWS V14.00,2013-02-20 03:36:00,
2013-02-19 22:41:00,17.4,7.7,28.94,West,265,10.5,13.2,65,0.00,,,0.00,VWS V14.00,2013-02-20 03:41:00,
2013-02-19 22:46:00,17.4,7.7,28.94,WNW,298,2.7,14.1,65,0.00,,,0.00,VWS V14.00,2013-02-20 03:46:00,
2013-02-19 22:51:00,17.4,7.7,28.94,WNW,300,3.6,14.1,65,0.00,,,0.00,VWS V14.00,2013-02-20 03:51:00,
2013-02-19 22:56:00,17.4,7.3,28.94,West,272,11.0,14.1,64,0.00,,,0.00,VWS V14.00,2013-02-20 03:56:00,
2013-02-19 23:01:00,17.4,7.3,28.94,WSW,237,8.7,10.5,64,0.00,,,0.00,VWS V14.00,2013-02-20 04:01:00,
2013-02-19 23:06:00,17.4,7.7,28.94,WNW,284,5.8,10.5,65,0.00,,,0.00,VWS V14.00,2013-02-20 04:06:00,
2013-02-19 23:11:00,17.4,7.7,28.94,WNW,289,6.3,10.5,65,0.00,,,0.00,VWS V14.00,2013-02-20 04:11:00,
2013-02-19 23:16:00,17.2,7.5,28.94,WNW,298,8.3,11.0,65,0.00,,,0.00,VWS V14.00,2013-02-20 04:16:00,
2013-02-19 23:21:00,17.1,7.3,28.94,SE,124,3.1,13.2,65,0.00,,,0.00,VWS V14.00,2013-02-20 04:21:00,
2013-02-19 23:26:00,17.1,7.0,28.94,West,264,10.5,16.3,64,0.00,,,0.00,VWS V14.00,2013-02-20 04:26:00,
2013-02-19 23:31:00,16.9,6.5,28.94,WNW,283,5.8,8.1,63,0.00,,,0.00,VWS V14.00,2013-02-20 04:31:00,
2013-02-19 23:36:00,16.9,6.5,28.94,WNW,298,4.5,12.8,63,0.00,,,0.00,VWS V14.00,2013-02-20 04:36:00,
2013-02-19 23:41:00,16.9,6.8,28.94,West,277,4.9,12.8,64,0.00,,,0.00,VWS V14.00,2013-02-20 04:41:00,
2013-02-19 23:46:00,16.9,6.8,28.94,West,265,6.3,12.8,64,0.00,,,0.00,VWS V14.00,2013-02-20 04:46:00,
2013-02-19 23:51:00,16.7,6.3,28.94,WNW,303,5.4,15.4,63,0.00,,,0.00,VWS V14.00,2013-02-20 04:51:00,
2013-02-19 23:56:00,16.7,6.3,28.94,West,274,16.8,16.8,63,0.00,,,0.00,VWS V14.00,2013-02-20 04:56:00,